Regional Weather Roundup
Issued by NWS

Home | Current Version | Previous Version | Graphics & Text | Print | Product List | Glossary On
Versions: 1 2 3 4 5 6 7 8 9 10 11 12 13 14 15 16 17 18 19 20 21 22 23 24 25 26 27 28 29 30 31 32 33 34 35 36 37 38 39 40 41 42 43 44 45 46 47 48 49 50
000
ASUS43 KIND 061159
RWRIN

WEATHER ROUNDUP FOR INDIANA
NATIONAL WEATHER SERVICE INDIANAPOLIS IN
700 AM EST FRI MAR 06 2015

NOTE: "FAIR" INDICATES FEW OR NO CLOUDS BELOW 12,000 FEET WITH NO
SIGNIFICANT WEATHER AND/OR OBSTRUCTIONS TO VISIBILITY.

* - STATION DOES NOT REPORT WEATHER SUCH AS PRECIPITATION OR FOG.

+ - STATION NOT QUALITY CONTROLLED BY THE NATIONAL WEATHER SERVICE.
    USE DATA WITH CAUTION...ESPECIALLY DEWPOINT AND RELATIVE
    HUMIDITY OBSERVATIONS.

INZ001>003-010>013-019-020-061300-
NORTHWEST INDIANA

CITY           SKY/WX    TMP DP  RH WIND       PRES   REMARKS
GARY /AIRPORT/ PTCLDY     5  -4  66 S7        30.48F WCI  -7
MONTICELLO +   PTCLDY    -1  -4  87 S3        30.52S
6HR MIN TEMP:  -6; 6HR MAX TEMP:   1;

VALPARAISO     NOT AVBL

$$

LMZ046-743>745-061300-
SOUTHERN LAKE MICHIGAN

STATION/POSITION TIME  TEMP WIND        PRES
                       AIR  DIR/SP/G
                 (UTC) (F)  (DEG/KT/KT) (MB)
MICHIGAN CITY    1100    5  170/  8/  9   N/A

$$

INZ004-005-014>016-021>024-061300-
NORTH CENTRAL INDIANA

CITY           SKY/WX    TMP DP  RH WIND       PRES   REMARKS
GOSHEN         PTCLDY     0  -6  76 S5        30.48S WCI -10
6HR MIN TEMP:  -1; 6HR MAX TEMP:   3;

SOUTH BEND     PTCLDY     1  -4  79 S3        30.47F
6HR MIN TEMP:  -1; 6HR MAX TEMP:   5;


$$

INZ006>009-017-018-025>027-061300-
NORTHEAST INDIANA

CITY           SKY/WX    TMP DP  RH WIND       PRES   REMARKS
ANGOLA *+      CLEAR     -6 -11  77 CALM      30.45S
FORT WAYNE     MOCLDY    -2  -7  79 SW6       30.51F WCI -14
6HR MIN TEMP:  -3; 6HR MAX TEMP:   5;


$$

INZ028-029-035-036-043>045-051>053-061300-
WEST CENTRAL INDIANA

CITY           SKY/WX    TMP DP  RH WIND       PRES   REMARKS
CRAWFORDSVL +  PTCLDY    -6 -12  74 CALM      30.52F
6HR MIN TEMP:  -8; 6HR MAX TEMP:  -1;

GREENCASTLE +  CLEAR      0  -8  71 CALM      30.52F
LAFAYETTE      PTCLDY    -3  -7  82 CALM      30.53F
6HR MIN TEMP:  -6; 6HR MAX TEMP:   2;

TERRE HAUTE    PTCLDY    -4  -9  79 CALM      30.55F
6HR MIN TEMP:  -6; 6HR MAX TEMP:   2;


$$

INZ030>032-037>040-046>048-054>057-064-065-061300-
CENTRAL INDIANA

CITY           SKY/WX    TMP DP  RH WIND       PRES   REMARKS
COLUMBUS       CLEAR      7   3  85 CALM      30.57
GREENWOOD *+   MOCLDY     3  -2  78 S3        30.53S
INDIANAPOLIS   PTCLDY     3  -3  76 SW5       30.51F WCI  -6
6HR MIN TEMP:   2; 6HR MAX TEMP:   7;

-EAGLE CREEK   MOCLDY     2  -2  83 CALM      30.52S
6HR MIN TEMP:   1; 6HR MAX TEMP:   7;

KOKOMO *+        N/A    N/A N/A N/A MISG        N/A
MT COMFORT *+  CLOUDY    -4 -13  65 CALM      30.52F
SHELBYVILLE    MOCLDY     1  -7  68 CALM      30.54R
6HR MIN TEMP:  -2; 6HR MAX TEMP:   9;


$$

INZ033-034-041-042-049-050-058-059-061300-
EAST CENTRAL INDIANA

CITY           SKY/WX    TMP DP  RH WIND       PRES   REMARKS
MUNCIE         PTCLDY     3  -2  79 CALM      30.50F
6HR MIN TEMP:   2; 6HR MAX TEMP:   8;


$$

INZ060-061-067>069-081>083-085>088-061300-
SOUTHWEST INDIANA

CITY           SKY/WX    TMP DP  RH WIND       PRES   REMARKS
EVANSVILLE     PTCLDY     2  -5  72 CALM      30.59F
6HR MIN TEMP:   0; 6HR MAX TEMP:  10;

HUNTINGBURG *+ MOCLDY     0  -6  78 NE5       30.57F WCI -10
6HR MIN TEMP:   0; 6HR MAX TEMP:  10;


$$

INZ062-063-066-070>080-084-089>092-061300-
SOUTH CENTRAL AND SOUTHEAST INDIANA

CITY           SKY/WX    TMP DP  RH WIND       PRES   REMARKS
BLOOMINGTON    PTCLDY     1  -4  79 CALM      30.53S
6HR MIN TEMP:  -1; 6HR MAX TEMP:   6;

SEYMOUR +      PTCLDY     1  -4  78 CALM      30.58R

$$



USA.gov is the U.S. government's official web portal to all federal, state and local government web resources and services.